Flag for Cyprus Weather past 2 weeks in Nicosia, Cyprus

Now
93 °F

Passing clouds.


Feels Like: 89 °F
Forecast: 67 / 87 °F
Wind: 13 mph from Northwest

Location: Ercan

Current Time: May 23, 2015 at 3:29:35 PM

Latest Report: May 23, 2015 at 2:50 PM


Visibility: N/A

Pressure: 29.80 "Hg

Humidity: 17%

Dew point: 43 °F

Location of NicosiaLocation

Historic Weather in Nicosia — Graph

°F

Nicosia temperature yesterday

Maximum temperature yesterday: 82 °F (at 12:20 PM)
Minimum temperature yesterday: 59 °F (at 3:20 AM)
Average temperature yesterday: 72 °F

Past Weeks' High & Low Weather Summary

 TemperatureHumidityPressure
High100 °F (May 19, 1:50 PM)100% (May 11, 4:50 AM)30.21 "Hg (May 11, 4:50 AM)
Low52 °F (May 16, 5:20 AM)9% (May 19, 2:20 PM)29.65 "Hg (May 9, 2:50 PM)
Average73 °F55%29.87 "Hg
* Reported May 8 2:20 PM — May 23 2:20 PM, Nicosia, Weather by CustomWeather, © 2015

Note: Actual official high and low records may vary slightly from our data, if they occured in-between our weather recording intervals... More about our weather records

Advertising

Nicosia weather history for previous 24 hours

 ConditionsComfort  
Time TempWeatherWind HumidityBarometerVisibility
2:20 PM
Sat, May 23
93 °FPassing clouds.14 mph20%29.80 "HgN/A
1:50 PM91 °FPassing clouds.13 mph21%29.80 "HgN/A
1:20 PM91 °FScattered clouds.13 mph23%29.80 "HgN/A
12:50 PM90 °FScattered clouds.9 mph22%29.80 "HgN/A
12:20 PM90 °FScattered clouds.6 mph24%29.83 "HgN/A
11:50 AM88 °FScattered clouds.6 mph27%29.83 "HgN/A
11:20 AM84 °FSunny.7 mph33%29.83 "Hg10 mi
10:50 AM82 °FPassing clouds.7 mph35%29.83 "HgN/A
10:20 AM82 °FPassing clouds.10 mph35%29.83 "HgN/A
9:50 AM81 °FSunny.12 mph37%29.83 "Hg10 mi
9:20 AM79 °FSunny.12 mph42%29.83 "Hg10 mi
8:50 AM75 °FSunny.12 mph47%29.83 "Hg10 mi
8:20 AM73 °FSunny.9 mph53%29.83 "Hg10 mi
7:55 AM72 °FPassing clouds.9 mph61%29.83 "HgN/A
7:50 AM72 °FSunny.9 mph61%29.83 "Hg10 mi
7:20 AM70 °FSunny.10 mph64%29.83 "Hg10 mi
6:50 AM70 °FSunny.12 mph69%29.83 "Hg10 mi
6:20 AM66 °FClear.14 mph78%29.80 "Hg10 mi
5:50 AM66 °FClear.14 mph73%29.80 "Hg10 mi
5:20 AM66 °FPassing clouds.14 mph78%29.80 "HgN/A
4:50 AM66 °FPassing clouds.13 mph78%29.80 "HgN/A
4:20 AM66 °FPassing clouds.14 mph83%29.80 "HgN/A
3:50 AM66 °FPassing clouds.16 mph78%29.80 "HgN/A
3:20 AM68 °FPassing clouds.18 mph78%29.80 "HgN/A
2:50 AM66 °FPassing clouds.17 mph83%29.80 "HgN/A
2:20 AM66 °FPassing clouds.16 mph78%29.83 "HgN/A
1:50 AM66 °FPassing clouds.17 mph83%29.80 "HgN/A
1:20 AM66 °FPassing clouds.16 mph83%29.83 "HgN/A
12:50 AM68 °FPassing clouds.14 mph78%29.83 "HgN/A
12:20 AM68 °FPassing clouds.12 mph78%29.83 "HgN/A
11:50 PM
Fri, May 22
68 °FPassing clouds.10 mph73%29.86 "HgN/A
11:20 PM68 °FPassing clouds.13 mph73%29.86 "HgN/A
10:50 PM68 °FPassing clouds.14 mph73%29.86 "HgN/A
10:20 PM70 °FPassing clouds.12 mph64%29.86 "HgN/A
9:50 PM70 °FPassing clouds.16 mph69%29.83 "HgN/A
9:20 PM70 °FPassing clouds.15 mph69%29.83 "HgN/A
8:50 PM70 °FPassing clouds.20 mph69%29.83 "HgN/A
8:20 PM72 °FScattered clouds.15 mph61%29.83 "HgN/A
7:50 PM73 °FScattered clouds.17 mph53%29.83 "HgN/A
7:20 PM75 °FScattered clouds.17 mph47%29.83 "HgN/A
6:50 PM79 °FScattered clouds.16 mph37%29.83 "HgN/A
6:20 PM81 °FScattered clouds.12 mph39%29.80 "HgN/A
5:50 PM82 °FScattered clouds.5 mph37%29.80 "HgN/A
5:20 PM81 °FScattered clouds.15 mph42%29.80 "HgN/A
4:50 PM82 °FScattered clouds.10 mph42%29.80 "HgN/A
4:20 PM81 °FScattered clouds.8 mph48%29.80 "HgN/A
3:50 PM82 °FScattered clouds.7 mph40%29.80 "HgN/A
3:20 PM81 °FScattered clouds.10 mph48%29.83 "HgN/A
Weather by CustomWeather, © 2015

See weather overviewHow to use our weather pages